Terminal Aerodrome Forecast
Issued by NWS Des Moines, IA

Home | Current Version | Previous Version | Text Only | Print | Product List | Glossary On
Versions: 1 2 3 4 5 6 7 8 9 10 11 12 13 14 15 16 17 18 19 20 21 22 23 24 25 26 27 28 29 30 31 32 33 34 35 36 37 38
000
FTUS43 KDMX 291211 RRA
TAFDSM
TAF
KDSM 291211Z 2912/3012 05006KT P6SM OVC050
     FM291400 03012KT 6SM -SN BKN035
      TEMPO 2914/2917 2SM -SN BR OVC020
     FM291800 02011KT P6SM OVC035
     FM300000 36010KT P6SM OVC050
     FM300700 35011KT P6SM OVC060
     FM301000 34010KT P6SM SCT015 BKN060=

USA.gov is the U.S. government's official web portal to all federal, state and local government web resources and services.